When you browse on this site, cookies collect data to enhance your experience and personalize the content and advertising you see.
Visit our Privacy Policy to learn more. By continuing to use the site, you agree to this use of cookies and data.
  • Em Portugal
  • Lista de países
  • Para 7 dias
  • Temperatura da água
  • Mapas de satélite
  • Mapa do tempo
  • Widgets de tempo
  • user-avatar
    Iniciar Sessão

    Previsão horária em Trzebien

    Hoje, 20 Março, Quarta-feira

    Tempo Temperatura Precipitação Vento Pressão Humidade
    00:00 +1°C° 0 mm 2 m/s 757 mmHg 85%
    01:00 +1°C° 0 mm 2 m/s 758 mmHg 87%
    02:00 +1°C° 0 mm 2 m/s 758 mmHg 88%
    03:00 -1°C° 0 mm 2 m/s 758 mmHg 90%
    04:00 -1°C° 0 mm 2 m/s 758 mmHg 92%
    05:00 -1°C° 0 mm 2 m/s 758 mmHg 90%
    06:00 +1°C° 0 mm 2 m/s 759 mmHg 89%
    07:00 +1°C° 0 mm 2 m/s 759 mmHg 86%
    08:00 +2°C° 0 mm 3 m/s 759 mmHg 77%
    09:00 +4°C° 0 mm 3 m/s 759 mmHg 68%
    10:00 +7°C° 0 mm 3 m/s 760 mmHg 59%
    11:00 +8°C° 0 mm 3 m/s 760 mmHg 54%
    12:00 +9°C° 0 mm 3 m/s 760 mmHg 50%
    13:00 +10°C° 0 mm 3 m/s 760 mmHg 45%
    14:00 +10°C° 0 mm 3 m/s 759 mmHg 45%
    15:00 +10°C° 0 mm 3 m/s 759 mmHg 44%
    16:00 +10°C° 0 mm 3 m/s 759 mmHg 44%
    17:00 +9°C° 0 mm 3 m/s 759 mmHg 50%
    18:00 +7°C° 0 mm 2 m/s 759 mmHg 56%
    19:00 +6°C° 0 mm 2 m/s 759 mmHg 62%
    20:00 +6°C° 0 mm 2 m/s 759 mmHg 63%
    21:00 +5°C° 0 mm 2 m/s 760 mmHg 64%
    22:00 +5°C° 0 mm 2 m/s 760 mmHg 66%
    23:00 +4°C° 0 mm 3 m/s 760 mmHg 66%

    Amanhã, 21 Março, Quinta-feira

    Tempo Temperatura Precipitação Vento Pressão Humidade
    00:00 +4°C° 0 mm 3 m/s 760 mmHg 65%
    01:00 +4°C° 0 mm 3 m/s 760 mmHg 65%
    02:00 +3°C° 0 mm 3 m/s 760 mmHg 67%
    03:00 +3°C° 0 mm 3 m/s 760 mmHg 69%
    04:00 +3°C° 0 mm 3 m/s 760 mmHg 71%
    05:00 +3°C° 0 mm 3 m/s 760 mmHg 72%
    06:00 +3°C° 0 mm 3 m/s 760 mmHg 74%
    07:00 +4°C° 0 mm 3 m/s 760 mmHg 75%
    08:00 +5°C° 0 mm 3 m/s 761 mmHg 73%
    09:00 +8°C° 0 mm 3 m/s 761 mmHg 72%
    10:00 +9°C° 0 mm 3 m/s 761 mmHg 70%
    11:00 +11°C° 0 mm 3 m/s 761 mmHg 66%
    12:00 +12°C° 0 mm 3 m/s 760 mmHg 63%
    13:00 +14°C° 0 mm 3 m/s 760 mmHg 59%
    14:00 +14°C° 0 mm 3 m/s 760 mmHg 59%
    15:00 +14°C° 0 mm 3 m/s 759 mmHg 59%
    16:00 +14°C° 0 mm 3 m/s 759 mmHg 59%
    17:00 +14°C° 0 mm 2 m/s 759 mmHg 67%
    18:00 +12°C° 0 mm 2 m/s 759 mmHg 74%
    19:00 +11°C° 0 mm 1 m/s 759 mmHg 82%
    20:00 +10°C° 0 mm 1 m/s 759 mmHg 84%
    21:00 +10°C° 0 mm 1 m/s 759 mmHg 87%
    22:00 +9°C° 0 mm 1 m/s 759 mmHg 89%
    23:00 +9°C° 0 mm 1 m/s 759 mmHg 90%

    Depois de amanhã, 22 Março, Sexta-feira

    Tempo Temperatura Precipitação Vento Pressão Humidade
    00:00 +9°C° 0 mm 1 m/s 759 mmHg 90%
    01:00 +8°C° 0 mm 2 m/s 759 mmHg 91%
    02:00 +7°C° 0 mm 2 m/s 759 mmHg 91%
    03:00 +7°C° 0 mm 2 m/s 759 mmHg 91%
    04:00 +7°C° 0 mm 2 m/s 759 mmHg 91%
    05:00 +7°C° 0 mm 2 m/s 759 mmHg 90%
    06:00 +7°C° 0 mm 2 m/s 759 mmHg 89%
    07:00 +7°C° 0 mm 2 m/s 759 mmHg 88%
    08:00 +11°C° 0 mm 1 m/s 759 mmHg 80%
    09:00 +13°C° 0 mm 1 m/s 759 mmHg 71%
    10:00 +15°C° 0 mm 1 m/s 759 mmHg 62%
    11:00 +16°C° 0 mm 1 m/s 759 mmHg 58%
    12:00 +18°C° 0 mm 1 m/s 759 mmHg 54%
    13:00 +20°C° 0 mm 1 m/s 758 mmHg 50%
    14:00 +20°C° 0 mm 1 m/s 758 mmHg 49%
    15:00 +20°C° 0 mm 1 m/s 757 mmHg 48%
    16:00 +20°C° 0 mm 1 m/s 757 mmHg 47%
    17:00 +18°C° 0 mm 1 m/s 757 mmHg 53%
    18:00 +15°C° 0 mm 1 m/s 757 mmHg 59%
    19:00 +14°C° 0 mm 1 m/s 756 mmHg 65%
    20:00 +13°C° 0 mm 1 m/s 756 mmHg 67%
    21:00 +13°C° 0 mm 1 m/s 756 mmHg 70%
    22:00 +12°C° 0 mm 2 m/s 756 mmHg 73%
    23:00 +12°C° 0 mm 2 m/s 756 mmHg 73%

    23 Março, Sábado

    Tempo Temperatura Precipitação Vento Pressão Humidade
    00:00 +10°C° 0 mm 2 m/s 756 mmHg 73%
    01:00 +10°C° 0 mm 2 m/s 756 mmHg 73%
    02:00 +10°C° 0 mm 2 m/s 756 mmHg 74%
    03:00 +9°C° 0 mm 2 m/s 755 mmHg 74%
    04:00 +9°C° 0 mm 3 m/s 755 mmHg 75%
    05:00 +9°C° 0 mm 3 m/s 755 mmHg 74%
    06:00 +9°C° 0 mm 3 m/s 755 mmHg 72%
    07:00 +10°C° 0 mm 3 m/s 756 mmHg 71%
    08:00 +11°C° 0 mm 3 m/s 756 mmHg 67%
    09:00 +13°C° 0 mm 3 m/s 756 mmHg 62%
    10:00 +14°C° 0 mm 3 m/s 756 mmHg 58%
    11:00 +16°C° 0 mm 3 m/s 756 mmHg 55%
    12:00 +17°C° 0 mm 3 m/s 756 mmHg 52%
    13:00 +18°C° 0 mm 4 m/s 756 mmHg 49%
    14:00 +18°C° 0 mm 4 m/s 756 mmHg 51%
    15:00 +18°C° 0 mm 3 m/s 756 mmHg 53%
    16:00 +17°C° 0 mm 3 m/s 755 mmHg 55%
    17:00 +16°C° 0 mm 3 m/s 756 mmHg 63%
    18:00 +13°C° 0 mm 3 m/s 756 mmHg 71%
    19:00 +11°C° 0 mm 3 m/s 756 mmHg 79%
    20:00 +11°C° 0 mm 3 m/s 757 mmHg 77%
    21:00 +10°C° 0 mm 3 m/s 757 mmHg 74%
    22:00 +10°C° 0 mm 3 m/s 758 mmHg 72%
    23:00 +9°C° 0 mm 3 m/s 758 mmHg 65%

    24 Março, Domingo

    Tempo Temperatura Precipitação Vento Pressão Humidade
    00:00 +8°C° 0 mm 3 m/s 758 mmHg 58%
    01:00 +7°C° 0 mm 3 m/s 758 mmHg 51%
    02:00 +5°C° 0 mm 3 m/s 757 mmHg 52%
    03:00 +5°C° 0 mm 3 m/s 757 mmHg 53%
    04:00 +5°C° 0 mm 2 m/s 757 mmHg 53%
    05:00 +5°C° 0 mm 2 m/s 757 mmHg 56%
    06:00 +5°C° 0 mm 2 m/s 757 mmHg 59%
    07:00 +4°C° 0 mm 2 m/s 757 mmHg 62%
    08:00 +6°C° 0 mm 2 m/s 757 mmHg 57%
    09:00 +7°C° 0 mm 2 m/s 757 mmHg 52%
    10:00 +8°C° 0 mm 3 m/s 757 mmHg 46%
    11:00 +10°C° 0 mm 2 m/s 756 mmHg 44%
    12:00 +12°C° 0 mm 2 m/s 755 mmHg 42%
    13:00 +13°C° 0 mm 2 m/s 755 mmHg 39%
    14:00 +13°C° 0 mm 2 m/s 754 mmHg 39%
    15:00 +13°C° 0 mm 2 m/s 754 mmHg 39%
    16:00 +13°C° 0 mm 1 m/s 753 mmHg 39%
    17:00 +12°C° 0 mm 1 m/s 753 mmHg 44%
    18:00 +10°C° 0 mm 1 m/s 753 mmHg 48%
    19:00 +8°C° 0 mm 0 m/s 752 mmHg 53%
    20:00 +8°C° 0 mm 1 m/s 752 mmHg 55%
    21:00 +7°C° 0 mm 1 m/s 752 mmHg 57%
    22:00 +7°C° 0 mm 1 m/s 752 mmHg 59%
    23:00 +7°C° 0 mm 1 m/s 751 mmHg 59%

    25 Março, Segunda-feira

    Tempo Temperatura Precipitação Vento Pressão Humidade
    00:00 +5°C° 0 mm 2 m/s 751 mmHg 59%
    01:00 +5°C° 0 mm 2 m/s 750 mmHg 60%
    02:00 +4°C° 0 mm 3 m/s 750 mmHg 62%
    03:00 +5°C° 0 mm 4 m/s 750 mmHg 64%
    04:00 +6°C° 0 mm 4 m/s 749 mmHg 66%
    05:00 +5°C° 0 mm 5 m/s 749 mmHg 66%
    06:00 +3°C° 0 mm 5 m/s 749 mmHg 66%
    07:00 +2°C° 0 mm 5 m/s 749 mmHg 67%
    08:00 +3°C° 0 mm 6 m/s 749 mmHg 64%
    09:00 +5°C° 0 mm 7 m/s 748 mmHg 61%
    10:00 +6°C° 0 mm 7 m/s 748 mmHg 59%
    11:00 +6°C° 0.1 mm 8 m/s 747 mmHg 62%
    12:00 +5°C° 0.1 mm 8 m/s 747 mmHg 65%
    13:00 +5°C° 0.1 mm 8 m/s 747 mmHg 69%
    14:00 +5°C° 0.5 mm 8 m/s 746 mmHg 65%
    15:00 +5°C° 0.5 mm 8 m/s 746 mmHg 62%
    16:00 +3°C° 0.5 mm 9 m/s 746 mmHg 58%
    17:00 +2°C° 0.1 mm 8 m/s 746 mmHg 61%
    18:00 +3°C° 0.1 mm 7 m/s 746 mmHg 63%
    19:00 +2°C° 0.1 mm 6 m/s 746 mmHg 65%
    20:00 +1°C° 0 mm 6 m/s 746 mmHg 66%
    21:00 0°C° 0 mm 7 m/s 746 mmHg 67%
    22:00 0°C° 0 mm 7 m/s 745 mmHg 68%
    23:00 -1°C° 0.1 mm 7 m/s 745 mmHg 68%
    Mostrar mais